TimeEDT,TemperatureF,Dew PointF,Humidity,Sea Level PressureIn,VisibilityMPH,Wind Direction,Wind SpeedMPH,Gust SpeedMPH,PrecipitationIn,Events,Conditions,WindDirDegrees,DateUTC
12:53 AM,78.1,68.0,71,30.01,10.0,SSE,5.8,-,N/A,,Clear,150,2014-04-27 04:53:00
1:53 AM,77.0,68.0,74,30.00,10.0,SSE,3.5,-,N/A,,Clear,150,2014-04-27 05:53:00
2:53 AM,75.0,68.0,79,29.98,10.0,South,3.5,-,N/A,,Clear,170,2014-04-27 06:53:00
3:53 AM,73.0,66.9,81,29.97,10.0,South,3.5,-,N/A,,Clear,170,2014-04-27 07:53:00
4:53 AM,75.2,66.2,73,29.98,10.0,Calm,Calm,-,N/A,,Clear,0,2014-04-27 08:53:00
5:53 AM,72.0,66.0,81,29.99,10.0,Calm,Calm,-,N/A,,Clear,0,2014-04-27 09:53:00
6:53 AM,71.1,66.0,84,30.00,10.0,East,5.8,-,N/A,,Clear,100,2014-04-27 10:53:00
7:53 AM,77.0,68.0,74,30.01,10.0,SE,4.6,-,N/A,,Clear,140,2014-04-27 11:53:00
8:53 AM,82.0,68.0,62,30.02,10.0,ESE,8.1,-,N/A,,Clear,120,2014-04-27 12:53:00
9:53 AM,82.9,66.9,58,30.03,10.0,ESE,11.5,-,N/A,,Clear,120,2014-04-27 13:53:00
10:53 AM,86.0,64.9,49,30.04,10.0,ESE,10.4,-,N/A,,Clear,120,2014-04-27 14:53:00
11:53 AM,88.0,59.0,37,30.04,10.0,SE,10.4,-,N/A,,Clear,140,2014-04-27 15:53:00
12:53 PM,88.0,57.0,35,30.01,10.0,ESE,11.5,-,N/A,,Clear,110,2014-04-27 16:53:00
1:53 PM,87.8,59.0,38,30.01,10.0,ENE,10.4,18.4,N/A,,Clear,70,2014-04-27 17:53:00
2:53 PM,88.0,59.0,37,29.99,10.0,East,11.5,-,N/A,,Clear,90,2014-04-27 18:53:00
3:53 PM,87.8,59.0,38,29.96,10.0,ESE,11.5,17.3,N/A,,Clear,120,2014-04-27 19:53:00
4:53 PM,87.1,57.0,36,29.96,10.0,ESE,12.7,-,N/A,,Clear,120,2014-04-27 20:53:00
5:53 PM,84.9,59.0,41,29.96,10.0,ESE,12.7,-,N/A,,Clear,110,2014-04-27 21:53:00
6:53 PM,82.9,63.0,51,29.98,10.0,SE,10.4,-,N/A,,Clear,130,2014-04-27 22:53:00
7:53 PM,80.1,66.0,62,29.98,10.0,ESE,8.1,-,N/A,,Scattered Clouds,110,2014-04-27 23:53:00
8:53 PM,79.0,66.0,64,29.99,10.0,ESE,9.2,-,N/A,,Clear,110,2014-04-28 00:53:00
9:53 PM,79.0,64.9,62,30.00,10.0,ESE,11.5,-,N/A,,Clear,120,2014-04-28 01:53:00
10:53 PM,79.0,64.9,62,30.00,10.0,ESE,10.4,-,N/A,,Clear,110,2014-04-28 02:53:00
11:53 PM,79.0,63.0,58,30.01,10.0,ESE,13.8,-,N/A,,Clear,120,2014-04-28 03:53:00